Weather reports worldwide

Advertisment
Tromso, Norway (1026): temperature & dewpoint: 16.08.2019 20:00:00 - 22.08.2019 20:00:00 (CEST)Tromso, Norway (1026): wind speed & gusts: 16.08.2019 20:00:00 - 22.08.2019 20:00:00 (CEST)Tromso, Norway (1026): wind direction: 16.08.2019 20:00:00 - 22.08.2019 20:00:00 (CEST)Tromso, Norway (1026): reduced air pressure: 16.08.2019 20:00:00 - 22.08.2019 20:00:00 (CEST)Tromso, Norway (1026): visibility: 16.08.2019 20:00:00 - 22.08.2019 20:00:00 (CEST)Tromso, Norway (1026): precipitation: 16.08.2019 20:00:00 - 22.08.2019 20:00:00 (CEST)
Date & Time tt [°C] td [°C] ff [km/h] ff [kn] fx [km/h] fx [kn] dd ppp [hPa] vv [km] rr [mm]
22.08.2019 20:00:00 10,2 7,6 8 4 - - NE 1016,7 70 0,0
22.08.2019 19:00:00 10,8 8,2 6 3 13 7 NE 1016,6 - 0,0
22.08.2019 18:00:00 11,7 7,8 5 3 14 8 NNE 1016,8 - 0,0
22.08.2019 17:00:00 11,7 7,8 7 4 10 6 NE 1017,1 65 0,0
22.08.2019 16:00:00 11,5 7,6 7 4 11 6 NE 1017,3 - 0,0
22.08.2019 15:00:00 11,6 7,9 7 4 11 6 WNW 1017,5 - 0,0
22.08.2019 14:00:00 12,7 7,4 5 3 - - WNW 1017,3 65 0,0
22.08.2019 13:00:00 12,4 7,1 7 4 11 6 SSE 1017,3 - 0,0
22.08.2019 12:00:00 11,8 7,7 7 4 10 6 WNW 1017,3 - 0,0
22.08.2019 11:00:00 11,6 7,5 6 3 13 7 NW 1017,2 60 0,0
22.08.2019 10:00:00 11,4 7,5 5 3 13 7 SSW 1017,1 - 0,0
22.08.2019 09:00:00 10,6 7,5 2 1 6 3 S 1016,9 - 0,0
22.08.2019 08:00:00 9,8 7,6 3 2 - - NE 1016,8 55 0,0
22.08.2019 07:00:00 9,8 8,1 18 10 27 15 W 1016,4 - 0,0
22.08.2019 06:00:00 9,6 8,2 7 4 14 8 W 1016,2 - 0,0
22.08.2019 05:00:00 9,6 8,2 3 2 17 9 WSW 1016,0 55 0,0
22.08.2019 04:00:00 9,6 8,5 8 4 18 10 WSW 1015,6 - 0,0
22.08.2019 03:00:00 9,7 8,5 7 4 24 13 W 1015,3 - 0,2
22.08.2019 02:00:00 10,2 8,0 11 6 - - WSW 1014,8 40 0,0
22.08.2019 01:00:00 10,6 8,2 19 10 38 20 SW 1014,0 - 0,0
22.08.2019 00:00:00 11,1 8,2 20 11 32 18 SSW 1013,5 - 0,0
21.08.2019 23:00:00 11,2 8,6 18 10 30 16 SSW 1013,2 40 0,0
21.08.2019 22:00:00 11,2 9,8 14 7 26 14 S 1012,6 - 0,3
21.08.2019 21:00:00 12,5 9,3 13 7 24 13 S 1012,0 - 0,0
21.08.2019 20:00:00 12,4 9,6 9 5 - - S 1011,9 45 0,0
21.08.2019 19:00:00 13,0 9,5 7 4 17 9 S 1011,6 - 0,0
21.08.2019 18:00:00 13,0 10,5 6 3 13 7 S 1011,2 - 0,1
21.08.2019 17:00:00 13,2 10,6 8 4 25 13 NE 1010,9 75 1,6
21.08.2019 16:00:00 14,0 11,5 3 2 10 5 N 1010,6 - 0,3
21.08.2019 15:00:00 15,5 10,7 3 2 13 7 NNW 1010,5 - 2,2
21.08.2019 14:00:00 14,7 9,9 3 2 - - W 1010,7 65 0,4
21.08.2019 13:00:00 15,4 10,2 5 3 10 5 NNE 1010,4 - 0,0
21.08.2019 12:00:00 17,3 10,0 3 1 9 5 ESE 1010,3 - 0,0
21.08.2019 11:00:00 15,2 10,0 5 3 9 5 WNW 1010,4 70 0,0
21.08.2019 10:00:00 14,2 9,6 4 2 8 4 N 1010,3 - 0,0
21.08.2019 09:00:00 10,6 9,0 1 1 5 3 N 1010,4 - 0,0
21.08.2019 08:00:00 9,8 8,7 2 1 - - SSW 1010,2 55 0,0
21.08.2019 07:00:00 9,8 8,9 4 2 9 5 ENE 1010,2 - 0,0
21.08.2019 06:00:00 9,0 8,2 5 3 8 4 NE 1010,4 - 0,0
21.08.2019 05:00:00 8,8 8,0 4 2 8 4 NE 1010,3 65 0,0
21.08.2019 04:00:00 8,9 8,1 3 2 6 3 ENE 1010,4 - 0,0
21.08.2019 03:00:00 8,8 8,0 5 3 10 5 NE 1010,2 - 0,0
21.08.2019 02:00:00 9,0 8,1 7 4 - - NE 1010,0 65 0,0
21.08.2019 01:00:00 8,7 7,6 3 2 8 5 E 1009,9 - 0,0
21.08.2019 00:00:00 9,9 8,8 4 2 7 4 NNE 1009,6 - 0,0
20.08.2019 23:00:00 9,3 8,2 4 2 7 4 N 1009,6 65 0,0
20.08.2019 22:00:00 9,6 8,5 5 3 7 4 WNW 1009,5 - 0,0
20.08.2019 21:00:00 10,1 8,4 4 2 8 4 N 1008,9 - 0,0
20.08.2019 20:00:00 11,6 8,8 5 3 - - NNE 1008,8 65 0,0
20.08.2019 19:00:00 12,7 9,2 4 2 12 7 N 1008,3 - 0,0
20.08.2019 18:00:00 12,7 8,8 5 3 13 7 NE 1007,9 - 0,0
20.08.2019 17:00:00 13,9 9,2 7 4 15 8 WNW 1007,4 60 0,0
20.08.2019 16:00:00 13,5 8,8 9 5 19 10 WNW 1007,0 - 0,0
20.08.2019 15:00:00 14,1 9,3 10 6 16 9 WNW 1006,4 - 0,0
20.08.2019 14:00:00 15,0 9,8 8 4 - - WSW 1005,7 60 0,0
20.08.2019 13:00:00 13,2 9,1 8 5 23 13 W 1005,3 - 0,0
20.08.2019 12:00:00 13,7 8,5 13 7 23 12 SSW 1004,7 - 0,0
20.08.2019 11:00:00 13,7 9,0 12 6 21 12 S 1004,3 55 0,0
20.08.2019 10:00:00 11,8 8,7 11 6 22 12 S 1004,0 - 0,0
20.08.2019 09:00:00 11,9 8,9 12 7 20 11 SSW 1003,3 - 0,0
20.08.2019 08:00:00 10,6 8,9 7 4 - - SW 1002,8 55 0,0
20.08.2019 07:00:00 9,8 8,9 4 2 11 6 WNW 1002,3 - 0,0
20.08.2019 06:00:00 9,6 8,8 4 2 16 8 WSW 1001,8 - 0,0
20.08.2019 05:00:00 9,7 8,9 7 4 19 10 W 1001,2 35 0,0
20.08.2019 04:00:00 9,8 9,0 9 5 18 10 W 1000,5 - 0,0
20.08.2019 03:00:00 10,0 9,4 11 6 30 16 WNW 999,6 - 0,2
20.08.2019 02:00:00 10,3 9,5 10 5 - - WNW 998,4 15 0,2
20.08.2019 01:00:00 10,7 9,8 11 6 24 13 NW 997,3 - 1,3
20.08.2019 00:00:00 10,6 9,8 13 7 30 16 W 996,4 - 3,1
19.08.2019 23:00:00 10,8 10,2 17 9 31 17 WNW 995,7 5 2,5
19.08.2019 22:00:00 12,0 11,4 9 5 13 7 WNW 995,3 - 0,3
19.08.2019 21:00:00 12,6 11,8 5 3 8 4 WNW 995,1 - 0,5
19.08.2019 20:00:00 12,7 11,8 5 3 - - NW 995,3 4,0 0,1
19.08.2019 19:00:00 13,3 12,2 1 1 5 3 N 995,6 - 0,3
19.08.2019 18:00:00 13,1 12,0 0 0 4 2 N 996,0 - 0,1
19.08.2019 17:00:00 13,4 12,3 2 1 5 3 SW 996,6 15 0,2
19.08.2019 16:00:00 13,2 12,1 3 2 5 3 SE 996,9 - 0,3
19.08.2019 15:00:00 12,8 11,7 2 1 15 8 ESE 997,4 - 0,6
19.08.2019 14:00:00 13,0 11,7 4 2 - - NE 998,0 25 0,4
19.08.2019 13:00:00 13,3 12,2 4 2 18 10 WNW 998,4 - 0,2
19.08.2019 12:00:00 13,0 11,7 9 5 16 9 NNE 998,7 - 0,6
19.08.2019 11:00:00 12,5 11,1 7 4 11 6 NNE 999,5 25 0,0
19.08.2019 10:00:00 12,7 11,6 5 3 13 7 NNE 1000,4 - 0,0
19.08.2019 09:00:00 12,8 11,7 2 1 9 5 ESE 1000,9 - 0,0
19.08.2019 08:00:00 12,6 11,7 4 2 - - NNW 1001,1 20 0,0
19.08.2019 07:00:00 13,1 11,7 8 4 13 7 NNE 1001,5 - 0,0
19.08.2019 06:00:00 12,4 11,6 5 3 11 6 NE 1001,9 - 0,0
19.08.2019 05:00:00 12,0 11,2 8 4 12 7 WNW 1002,2 20 0,1
19.08.2019 04:00:00 12,6 11,7 8 5 13 7 NE 1002,1 - 0,0
19.08.2019 03:00:00 12,6 11,7 7 4 14 8 NE 1002,2 - 3,2
19.08.2019 02:00:00 12,5 11,4 10 5 - - NW 1002,4 25 0,4
19.08.2019 01:00:00 12,6 11,3 5 3 19 11 WNW 1001,9 - 0,7
19.08.2019 00:00:00 13,1 11,0 4 2 13 7 WNW 1001,4 - 0,2
18.08.2019 23:00:00 14,4 11,0 8 5 17 9 WNW 1001,1 70 0,0
18.08.2019 22:00:00 15,0 11,6 4 2 14 8 NE 1000,6 - 0,0
18.08.2019 21:00:00 16,1 11,5 7 4 23 13 SE 1000,6 - 0,1
18.08.2019 20:00:00 17,0 11,3 6 4 - - SSE 1000,0 70 0,0
18.08.2019 19:00:00 17,1 11,6 5 3 11 6 NE 1000,2 - 0,0
18.08.2019 18:00:00 17,2 11,5 5 3 13 7 NNE 1000,0 - 0,0
18.08.2019 17:00:00 16,9 12,2 7 4 21 11 WNW 1000,2 70 0,0
18.08.2019 16:00:00 18,1 11,7 6 4 14 8 SSW 999,9 - 0,0
18.08.2019 15:00:00 17,0 11,3 5 3 14 8 S 999,9 - 0,0
18.08.2019 14:00:00 17,7 11,7 1 1 - - NNW 999,7 70 0,0
18.08.2019 13:00:00 18,1 11,4 4 2 12 7 WSW 999,7 - 0,0
18.08.2019 12:00:00 15,9 11,3 4 2 18 10 ENE 999,6 - 0,0
18.08.2019 11:00:00 15,3 12,1 6 3 16 8 SSE 999,4 70 0,0
18.08.2019 10:00:00 15,2 11,8 3 1 12 7 ENE 998,9 - 0,0
18.08.2019 09:00:00 13,3 11,5 8 4 12 6 NE 998,8 - 0,0
18.08.2019 08:00:00 13,0 11,9 5 3 - - NE 998,5 70 0,0
18.08.2019 07:00:00 12,6 11,7 3 2 13 7 N 998,5 - 0,2
18.08.2019 06:00:00 12,3 11,2 9 5 12 7 NE 998,3 - 0,0
18.08.2019 05:00:00 12,1 10,8 7 4 16 8 NE 998,6 30 0,2
18.08.2019 04:00:00 11,5 10,6 11 6 26 14 NE 999,1 - 0,7
18.08.2019 03:00:00 11,1 9,5 8 4 13 7 NE 999,4 - 0,6
18.08.2019 02:00:00 10,6 9,0 7 4 - - ENE 999,6 55 0,2
18.08.2019 01:00:00 10,5 8,6 5 3 14 8 E 1000,2 - 0,0
18.08.2019 00:00:00 10,5 8,4 9 5 15 8 ENE 1000,4 - 0,0
17.08.2019 23:00:00 10,8 8,2 7 4 14 7 ENE 1000,7 65 0,0
17.08.2019 22:00:00 11,3 8,5 5 3 10 5 ENE 1001,4 - 0,0
17.08.2019 21:00:00 11,6 8,1 6 3 12 6 N 1001,7 - 0,0
17.08.2019 20:00:00 12,7 8,4 5 3 - - NE 1002,2 75 0,0
17.08.2019 19:00:00 13,6 8,5 5 3 14 7 N 1002,4 - 0,0
17.08.2019 18:00:00 14,0 9,0 3 2 16 9 N 1002,8 - 0,0
17.08.2019 17:00:00 15,6 8,4 11 6 24 13 NNE 1002,8 80 0,0
17.08.2019 16:00:00 16,5 8,5 11 6 22 12 N 1003,1 - 0,0
17.08.2019 15:00:00 17,0 8,9 14 8 22 12 NNE 1003,7 - 0,0
17.08.2019 14:00:00 16,1 8,6 10 5 - - NNE 1004,2 75 0,0
17.08.2019 13:00:00 15,2 8,9 12 6 19 10 NE 1004,8 - 0,0
17.08.2019 12:00:00 15,3 8,8 8 5 14 8 NE 1004,9 - 0,0
17.08.2019 11:00:00 14,9 9,5 6 3 11 6 NE 1005,1 75 0,0
17.08.2019 10:00:00 14,7 9,7 4 2 13 7 NE 1005,2 - 0,0
17.08.2019 09:00:00 13,3 9,9 4 2 10 5 SSE 1005,4 - 0,0
17.08.2019 08:00:00 11,1 9,9 2 1 - - NNW 1005,6 35 0,0
17.08.2019 07:00:00 10,1 9,5 5 3 16 9 SE 1005,4 - 0,0
17.08.2019 06:00:00 9,5 8,9 6 3 16 8 SSE 1005,2 - 0,0
17.08.2019 05:00:00 9,5 8,9 4 2 10 5 S 1005,2 6 0,0
17.08.2019 04:00:00 9,5 8,9 6 3 11 6 SSW 1005,1 - 0,4
17.08.2019 03:00:00 8,9 8,1 3 2 6 3 WSW 1004,9 - 0,0
17.08.2019 02:00:00 9,1 8,3 3 2 - - NE 1004,8 65 0,0
17.08.2019 01:00:00 9,1 8,3 2 1 7 4 SE 1004,8 - 0,0
17.08.2019 00:00:00 9,3 8,5 3 2 7 4 NE 1004,9 - 0,0
16.08.2019 23:00:00 9,1 8,3 4 2 8 4 ENE 1005,1 65 0,0
16.08.2019 22:00:00 8,8 7,9 4 2 9 5 NNE 1004,9 - 0,0
16.08.2019 21:00:00 9,5 8,4 6 3 9 5 NNE 1004,6 - 0,0
16.08.2019 20:00:00 10,1 8,5 7 4 - - NNE 1004,4 80 0,0

tt = temperature
td = dewpoint
ff = wind speed
fx = gusts
dd = wind direction
ppp = reduced air pressure
vv = visibility
rr = precipitation

Next stations